Wind_Speed
17 18 17 16 17 19 19 20 24 28 29 29 30 32 33 32 31 30 29 32 34 33 35 37 36 35 35 36 37 37 37 35 35 35 33 31 30 29 30 30 28 28 27 27 28 28 27 27 26 26 26 24 23 21 20 19 18 18 17 16 15 15 15
17 17 17 17 17 19 20 21 25 27 28 29 31 33 34 33 33 32 31 33 35 34 35 37 36 35 36 37 36 36 37 36 36 36 32 31 33 32 32 31 30 31 30 29 28 28 28 27 26 25 25 25 24 22 21 20 19 19 18 17 15 15 15
16 16 17 18 18 19 20 21 24 27 29 30 32 34 36 35 35 34 32 33 34 33 33 36 36 35 36 36 35 35 37 35 34 35 33 31 34 32 30 32 32 31 30 30 29 28 28 27 27 26 25 25 24 23 22 21 20 20 19 18 17 16 15
17 18 19 20 20 20 20 20 23 28 30 32 35 36 36 35 34 34 34 34 35 34 33 35 35 35 35 35 34 34 36 35 34 34 32 30 31 30 29 31 31 30 30 31 30 28 28 28 27 26 26 25 25 24 23 22 21 21 20 19 19 17 16
18 18 17 18 18 18 18 19 23 29 31 33 35 35 34 35 34 34 35 35 36 36 36 36 35 33 33 34 33 32 35 37 35 34 31 28 28 30 31 31 31 31 31 31 30 29 28 28 27 27 27 26 26 25 25 24 23 22 22 21 20 19 16
16 16 16 16 17 17 18 20 26 32 34 34 35 34 33 34 35 36 36 35 35 35 35 35 35 34 34 34 32 31 33 35 36 35 32 29 29 32 32 32 32 31 31 31 31 30 29 28 28 27 27 26 26 26 26 26 25 24 23 22 22 20 17
15 15 16 17 17 18 20 21 26 32 34 33 33 32 32 34 35 35 35 35 35 35 34 35 35 34 34 34 32 31 33 34 34 35 32 29 30 32 32 32 33 32 31 31 32 30 29 29 28 28 28 26 26 25 26 26 26 25 24 24 23 22 20
16 15 16 18 17 19 19 20 24 29 32 31 30 30 33 35 35 35 35 36 36 35 35 36 35 33 33 33 32 33 34 33 32 33 31 28 29 30 30 32 34 34 32 31 31 31 30 29 29 29 28 27 26 26 26 26 25 25 24 24 24 23 21
16 15 17 19 19 18 17 18 22 26 28 30 31 33 35 35 35 37 37 37 36 36 36 37 35 33 34 34 34 34 34 31 30 31 31 29 29 29 29 30 32 34 34 32 29 30 31 30 30 30 29 28 27 27 27 26 25 25 25 25 25 24 22
15 15 16 18 18 17 16 16 18 19 22 27 29 30 33 34 34 36 36 36 36 37 37 36 34 32 34 36 35 33 32 31 30 30 30 30 29 29 29 28 27 30 33 30 26 27 31 31 30 30 29 28 28 28 28 27 26 25 25 25 25 25 24
11 12 13 16 17 16 16 16 15 15 17 22 25 28 31 33 33 35 35 36 37 36 36 35 33 32 33 34 34 32 31 31 30 30 30 31 30 29 29 27 25 27 30 29 26 26 29 31 31 31 30 30 29 29 29 28 28 27 26 26 25 25 25
7 7 9 13 16 16 16 15 14 14 15 21 27 29 30 31 32 34 35 36 36 35 35 35 33 32 32 33 33 31 31 31 31 30 31 31 30 29 29 28 25 26 29 29 28 26 27 29 31 32 31 31 30 30 30 29 29 29 28 26 25 26 25
7 7 8 10 11 11 12 12 14 15 16 22 29 31 31 32 33 33 33 34 35 34 34 34 33 32 32 33 32 31 31 32 31 31 31 31 30 28 27 28 26 26 28 29 28 27 26 26 28 31 32 32 31 30 30 30 29 29 29 28 27 27 27
10 10 10 10 10 11 12 12 13 14 16 22 28 30 30 32 33 32 32 34 34 33 33 33 32 32 32 33 32 31 32 32 31 31 31 30 30 29 27 27 27 27 27 28 28 28 27 26 26 29 31 31 31 31 30 30 30 30 30 30 29 28 28
8 11 12 13 13 14 14 15 15 14 16 21 26 28 29 30 30 30 30 32 33 33 33 32 32 33 32 32 31 31 32 32 30 30 31 31 32 33 30 27 27 27 26 28 29 28 27 26 25 25 27 29 30 30 29 29 30 30 31 31 30 29 27
8 10 12 14 15 15 16 17 17 16 16 18 23 27 29 29 29 30 31 33 34 33 33 32 32 33 33 32 32 32 32 32 32 31 33 35 37 37 35 29 26 27 27 28 29 28 27 27 25 24 25 26 28 28 28 28 30 32 32 31 30 29 26
10 11 11 13 16 16 16 17 16 16 16 18 22 27 29 29 30 32 33 33 34 34 33 32 32 33 34 32 32 32 33 35 36 35 36 38 38 38 37 33 28 27 28 28 29 30 29 27 26 25 25 24 25 26 26 28 31 33 33 32 31 29 26
12 13 14 14 14 14 17 18 17 17 19 21 25 29 29 28 28 30 32 33 34 34 33 32 33 33 33 30 29 33 35 34 34 35 35 38 38 37 37 35 30 28 29 30 31 31 30 28 27 28 27 24 23 24 25 28 31 33 33 33 32 31 29
13 15 16 16 14 13 16 18 18 20 21 24 29 33 32 32 31 32 34 34 34 33 32 32 33 32 32 29 28 33 35 32 32 33 34 37 38 37 36 35 32 30 30 30 30 29 30 29 28 28 28 26 25 25 25 26 29 33 34 33 32 31 31
14 15 16 16 16 15 15 16 16 19 23 27 31 33 33 33 32 31 30 30 31 32 31 31 31 30 30 29 29 34 35 33 34 34 34 37 38 36 35 34 33 31 30 28 28 27 28 29 28 28 28 28 27 26 25 25 28 32 34 33 33 32 31
13 13 14 14 15 15 15 15 14 16 21 27 29 28 29 29 28 27 28 29 30 30 29 29 29 29 29 28 29 33 35 34 34 34 34 36 36 35 34 33 32 31 29 27 26 27 29 30 29 28 28 29 28 26 26 28 30 32 33 33 33 32 31
13 14 14 13 13 13 13 15 17 18 21 25 28 28 29 29 29 29 29 30 30 30 29 28 28 28 29 29 30 33 35 34 33 33 33 34 34 33 32 31 32 33 32 28 26 25 27 29 29 28 28 30 30 27 27 29 31 33 35 34 33 32 31
13 13 13 12 12 11 10 13 16 18 21 24 27 29 29 30 30 29 29 29 29 29 29 28 27 28 29 30 31 33 34 34 34 33 33 32 32 31 31 31 33 34 33 29 26 24 25 27 27 27 28 28 28 27 28 29 31 34 35 34 33 32 32
12 11 10 9 9 11 12 14 17 18 21 23 24 26 28 29 30 29 28 28 29 29 29 29 28 28 29 30 31 32 34 35 34 33 31 30 30 30 30 30 31 31 31 30 28 26 26 26 26 26 26 26 27 28 30 29 30 33 35 34 33 33 33
11 10 8 4 8 13 15 18 20 21 23 24 24 25 27 29 30 28 26 27 28 28 28 28 28 28 30 31 30 31 34 35 34 33 30 29 29 29 29 30 31 31 31 30 29 27 25 25 25 25 25 25 27 30 31 29 27 31 34 34 34 33 33
10 10 9 4 4 12 18 20 21 23 24 24 25 26 28 29 28 26 25 25 26 27 27 28 29 31 31 30 28 31 35 35 34 33 30 29 30 31 32 33 32 29 28 27 26 25 25 24 24 24 24 24 25 27 30 29 27 29 33 34 34 33 33
9 10 9 8 5 8 17 20 21 24 25 26 27 27 28 28 25 23 24 24 26 28 28 29 32 32 30 28 26 28 32 32 32 32 31 30 33 33 32 31 29 27 26 26 25 25 24 23 23 23 23 23 24 25 26 28 28 30 32 33 33 33 33
10 11 10 10 11 6 9 15 18 21 23 26 28 28 28 27 23 22 23 23 25 27 25 27 33 32 28 27 26 26 29 30 31 32 30 29 30 30 27 27 27 25 25 26 24 24 23 23 22 22 21 21 22 23 24 28 30 31 31 32 33 33 33
12 12 11 11 11 10 6 9 12 15 20 24 26 26 27 27 23 21 22 22 24 26 25 27 33 31 28 29 28 26 30 33 33 32 29 26 27 28 27 26 26 25 25 26 24 22 22 23 22 21 21 20 20 21 22 27 32 33 33 33 34 34 34
13 13 13 11 12 12 10 9 9 11 13 16 20 23 26 28 25 21 20 23 26 29 28 29 32 31 29 30 28 28 31 33 32 30 27 25 26 27 27 25 25 24 24 25 24 22 22 23 23 22 23 22 22 22 22 24 29 33 34 35 34 34 35
15 15 15 14 15 15 13 12 12 12 12 10 11 18 24 28 26 20 18 23 29 30 30 30 31 32 31 29 28 28 29 29 28 28 27 26 26 27 27 25 24 24 23 23 24 23 22 23 22 23 25 24 23 23 21 22 24 27 30 33 34 34 34
15 16 17 17 17 16 15 15 15 15 15 14 11 12 16 21 23 21 20 25 30 31 31 31 31 31 30 28 28 28 27 25 26 26 27 27 26 27 28 26 24 24 23 23 23 23 22 23 22 22 24 23 22 22 21 20 22 23 25 28 31 32 32
14 15 17 17 18 18 17 16 15 15 15 15 13 12 12 14 17 19 21 24 26 27 29 30 29 29 29 28 28 28 26 24 24 24 25 26 25 25 25 25 23 23 22 22 22 22 23 24 22 21 22 22 22 22 20 19 20 20 20 22 27 31 32
14 14 16 18 19 19 18 16 16 15 15 14 13 13 14 14 13 14 17 20 21 21 22 24 26 27 27 27 28 27 26 26 26 24 21 21 23 23 22 23 23 22 22 23 24 23 23 23 22 21 22 22 21 20 19 18 18 19 21 22 25 27 29
13 14 16 18 19 19 18 17 17 16 16 14 13 12 13 13 12 12 13 15 17 17 17 19 22 22 22 22 23 24 26 27 26 24 19 18 21 23 23 23 24 23 22 23 25 26 25 22 21 21 21 21 20 19 18 17 18 22 25 26 27 25 25
12 13 15 16 17 18 18 17 17 16 15 14 12 12 12 11 10 10 10 11 13 14 14 17 18 16 16 16 15 17 21 21 20 19 18 17 21 24 22 21 22 23 22 21 24 28 28 26 23 22 21 20 20 21 21 20 20 24 25 25 25 24 24
12 13 14 15 15 15 15 15 15 15 14 13 12 12 11 10 9 8 7 8 10 11 12 14 14 11 10 10 10 12 14 12 11 14 16 19 23 24 22 18 16 19 21 21 22 25 28 29 28 25 24 22 21 23 26 25 24 24 23 21 20 21 22
15 14 14 14 14 13 13 13 14 14 13 12 12 12 12 11 9 7 6 6 7 9 11 12 11 9 8 7 7 9 9 8 9 12 13 16 20 21 20 17 13 11 14 17 18 20 23 26 27 26 26 25 23 23 25 24 24 23 21 18 16 18 20
Wind_Direction
202 201 200 197 194 193 194 192 192 194 194 191 190 193 194 193 192 190 190 191 193 196 198 200 201 202 203 206 208 210 209 210 211 212 212 214 214 215 218 219 220 222 223 226 231 235 238 238 238 238 240 243 247 249 250 251 251 252 256 260 258 254 252
201 202 200 197 196 195 195 193 190 191 192 191 191 193 195 194 191 190 189 190 193 195 197 199 201 202 204 206 207 208 210 210 212 212 211 213 216 218 220 221 222 225 227 230 233 238 240 240 239 239 240 243 246 249 250 251 252 251 253 257 258 256 251
199 201 198 197 196 196 195 191 190 192 193 191 191 192 194 194 191 190 189 190 193 195 196 198 200 202 205 206 206 208 210 209 210 211 211 213 216 217 219 222 224 226 229 232 235 238 240 240 240 240 240 242 245 248 249 250 252 251 251 254 256 255 251
199 199 197 197 196 194 191 189 191 193 194 194 194 194 193 191 189 189 191 192 193 193 195 197 199 201 203 204 205 206 208 209 209 211 211 212 214 213 214 219 222 224 228 232 234 236 238 239 240 241 241 242 244 246 248 249 250 251 250 251 253 253 253
200 199 197 197 196 193 189 190 192 193 196 197 196 194 192 190 189 191 193 194 195 195 196 197 198 200 202 203 204 205 208 210 210 210 209 208 210 212 214 217 220 222 226 231 233 235 237 238 239 241 242 243 244 244 246 247 248 250 250 250 252 252 251
200 197 197 197 197 195 190 192 194 194 196 197 195 193 191 190 192 194 194 194 195 196 196 196 196 197 200 202 202 203 206 208 209 210 209 208 210 214 216 218 220 222 224 228 231 233 236 237 238 240 243 244 244 243 244 245 246 248 250 250 252 252 248
199 195 199 199 197 196 193 193 195 195 196 196 193 190 189 191 193 194 195 195 195 196 194 195 196 196 198 199 200 202 204 206 208 210 209 209 212 215 216 218 221 223 224 227 230 232 233 236 238 241 244 245 244 243 244 245 246 246 248 250 252 253 252
198 195 198 201 199 197 195 193 194 195 193 191 189 188 187 191 193 193 195 195 195 196 195 196 196 196 196 196 198 202 204 205 206 208 208 207 210 214 215 218 222 224 224 225 229 232 233 235 238 242 245 244 244 245 245 247 247 246 247 249 252 254 253
198 197 199 201 201 198 196 194 192 190 186 184 186 186 187 189 191 192 194 194 194 196 197 197 196 195 194 195 199 201 202 202 202 205 205 205 208 211 213 216 220 223 224 224 225 230 232 235 238 241 244 244 244 246 246 247 248 246 246 248 251 252 252
198 196 199 202 202 199 196 191 186 182 180 181 183 184 185 188 191 191 192 193 194 196 197 196 195 194 194 196 199 200 199 199 200 202 203 204 208 210 211 213 215 219 223 222 219 226 232 235 237 239 242 243 243 245 246 247 247 246 247 249 251 252 253
205 199 197 198 199 197 192 184 178 177 178 180 183 185 186 188 190 189 191 192 194 195 195 194 193 193 194 196 198 198 198 200 200 201 202 204 207 209 210 210 209 214 219 219 216 221 229 233 235 236 239 240 241 243 245 246 247 246 247 248 250 252 253
221 213 204 202 200 194 190 185 179 178 180 183 187 188 187 187 188 189 190 191 192 193 192 191 192 192 192 194 196 197 198 199 200 201 202 204 206 208 208 207 207 210 215 218 218 219 224 229 232 234 236 238 239 240 243 246 246 246 247 247 248 251 252
209 212 211 209 206 198 193 189 183 181 181 185 189 190 188 187 189 189 188 189 190 191 189 189 189 189 190 192 194 196 197 198 199 200 201 203 205 205 205 206 207 209 213 216 217 218 220 223 228 232 235 237 237 239 241 244 245 246 248 247 246 250 252
204 206 203 197 196 195 195 195 190 185 184 186 189 189 188 188 189 189 187 186 187 188 188 187 185 186 188 190 192 195 196 197 198 199 200 201 202 204 204 205 207 209 212 214 216 218 220 220 223 229 233 235 236 237 239 241 243 244 246 247 246 247 249
224 213 204 196 192 191 193 195 193 187 184 185 186 185 185 186 187 186 184 183 185 187 187 184 182 184 187 189 192 195 195 195 196 198 199 200 203 206 205 204 206 208 210 214 216 217 219 220 220 223 227 230 233 235 235 236 238 240 242 243 244 245 245
261 235 215 202 196 196 195 194 192 188 183 183 184 183 182 182 182 182 181 182 184 187 186 183 182 184 187 189 193 194 193 193 196 198 200 204 208 211 210 207 207 209 211 214 218 218 219 220 219 219 222 225 228 230 231 232 236 240 242 242 242 242 241
276 259 239 214 200 198 198 194 189 183 181 183 184 183 181 181 182 183 184 184 185 186 185 183 183 184 188 192 193 193 194 197 200 202 204 208 210 212 213 211 209 211 213 215 218 220 220 219 219 220 222 223 224 225 227 231 236 241 243 244 243 241 239
281 268 259 241 216 201 197 194 185 179 184 187 186 185 183 179 179 183 186 186 185 185 184 185 185 187 190 192 190 192 196 197 200 203 206 209 211 212 213 213 210 210 213 215 218 219 219 219 220 223 225 223 224 224 225 230 237 241 244 245 245 243 240
279 269 262 254 241 218 201 194 186 182 186 185 185 187 185 178 178 183 185 184 183 183 183 186 187 187 189 189 189 192 195 195 196 200 203 207 210 211 211 211 210 211 213 216 218 218 219 221 222 224 225 223 224 225 225 229 237 242 244 245 245 244 242
280 274 266 256 247 230 205 191 187 185 184 185 185 185 182 179 180 182 180 179 178 179 181 183 185 185 187 189 189 192 194 195 197 199 201 205 208 208 208 209 210 212 214 215 216 216 218 220 221 223 224 224 225 227 228 230 236 242 245 244 244 243 242
289 286 274 254 238 225 202 185 182 181 182 184 181 177 174 175 177 175 174 174 175 176 177 178 180 183 185 186 187 190 194 195 197 198 201 204 205 206 207 208 210 211 212 213 214 215 217 220 221 223 225 226 227 228 231 234 237 241 244 244 244 242 242
298 298 283 255 230 215 197 186 184 182 180 178 175 172 171 173 174 173 174 174 174 177 178 177 179 182 184 185 187 190 193 194 195 197 200 201 203 204 205 207 210 212 212 212 213 215 218 221 222 222 225 227 227 227 232 236 238 240 243 244 243 241 239
304 303 285 254 220 193 176 174 176 174 171 170 172 173 172 172 173 174 174 175 176 178 180 181 183 184 185 187 189 191 192 194 195 197 199 199 200 202 204 207 211 213 212 212 213 215 217 219 221 222 224 227 225 225 231 236 238 241 243 243 242 238 236
315 316 296 252 198 167 158 158 158 158 162 166 170 171 169 169 171 170 171 174 176 177 180 183 186 186 186 188 189 190 192 194 196 197 197 198 199 202 204 207 209 212 212 213 214 216 218 220 222 224 225 225 225 226 231 234 238 241 243 243 241 238 236
335 340 328 268 186 164 155 154 153 154 158 163 166 166 164 166 168 167 167 172 174 176 181 185 187 187 189 190 191 192 194 196 197 197 197 198 200 202 204 208 210 212 213 214 215 217 220 220 221 223 224 225 226 229 233 234 236 241 244 244 241 238 236
350 355 354 338 188 159 147 145 149 156 160 163 165 164 163 165 167 166 166 169 174 179 184 187 188 188 190 191 192 195 198 198 199 199 198 199 202 205 208 210 212 211 211 213 215 218 221 221 221 224 225 225 226 229 232 232 233 239 243 243 241 238 235
8 11 16 18 36 135 149 150 153 161 164 162 161 163 165 166 165 163 165 168 177 185 187 187 188 188 188 188 190 194 198 199 200 201 201 203 206 208 210 211 211 210 210 213 215 218 220 220 221 224 226 226 226 228 230 232 234 237 241 243 241 239 236
28 27 32 34 32 61 144 154 154 158 160 159 161 165 167 165 160 160 166 172 182 187 186 186 188 188 187 188 190 192 195 199 202 203 203 205 207 207 208 210 211 210 210 212 214 215 217 217 218 221 225 227 228 227 229 234 238 239 240 242 242 241 238
39 37 40 43 35 37 79 126 138 147 153 158 164 165 165 164 161 162 170 177 183 185 183 185 188 188 189 190 191 193 197 202 204 204 205 206 205 205 207 209 209 208 208 209 210 211 215 216 216 220 224 227 230 230 230 235 242 243 242 243 244 244 242
45 44 47 50 44 41 55 82 100 115 131 150 161 163 165 166 163 163 170 177 181 184 185 187 188 189 190 192 193 196 200 204 205 204 205 205 203 204 207 206 204 206 206 207 208 211 217 220 220 223 228 231 235 235 231 232 240 245 245 244 244 244 244
43 45 47 50 49 50 60 73 82 89 90 98 136 157 166 167 164 160 164 171 178 182 185 187 189 191 192 193 194 197 199 201 203 203 204 204 202 203 206 205 203 205 206 206 209 212 217 221 220 223 228 230 233 235 231 228 233 239 243 245 245 245 245
36 41 44 45 45 48 60 69 73 78 75 68 84 130 153 161 160 157 159 167 175 181 185 187 189 192 194 195 196 198 198 200 202 204 205 206 205 207 209 207 205 206 206 206 208 210 216 220 218 219 224 228 231 233 230 226 228 232 237 241 243 243 244
32 36 40 40 38 39 47 57 60 64 68 62 61 82 111 132 144 148 155 164 171 177 181 184 188 193 198 201 201 200 199 200 204 207 208 207 207 209 210 208 205 205 204 204 206 209 216 220 218 216 220 225 228 229 227 225 226 226 226 232 238 241 241
31 36 39 39 38 40 44 49 51 54 60 58 54 66 85 99 114 130 145 155 161 167 173 179 185 191 198 203 205 205 204 205 207 207 206 205 205 207 208 207 207 208 208 207 207 208 212 215 215 213 216 218 220 222 222 222 222 221 221 224 230 234 235
27 33 37 37 39 41 44 47 49 53 58 55 49 56 71 84 97 114 131 145 153 157 160 168 175 180 187 194 202 207 209 211 211 208 205 202 203 206 208 208 208 211 213 213 213 212 212 214 214 214 215 217 218 218 218 218 221 228 233 235 235 233 230
22 28 31 33 37 40 40 41 44 48 50 46 40 43 55 69 87 105 119 135 149 155 157 160 162 164 171 178 185 196 204 209 209 206 204 201 200 202 205 207 209 210 211 215 218 218 218 220 221 219 218 218 220 222 224 225 230 239 244 245 244 241 236
22 30 30 29 31 34 34 32 34 37 38 34 31 34 40 49 67 92 112 129 147 158 163 162 158 154 160 167 172 181 190 195 196 196 197 199 198 197 196 196 203 209 211 215 220 221 221 224 226 226 227 227 229 234 237 237 238 242 247 247 245 242 238
25 31 32 30 27 26 25 24 27 32 32 29 29 31 34 40 52 69 93 116 139 154 159 160 160 158 155 155 163 174 179 186 191 190 190 191 192 192 190 185 181 188 202 212 217 219 221 224 226 228 231 232 235 240 244 243 240 241 244 246 243 237 232
Height
724 726 728 730 733 736 738 740 744 748 753 756 760 764 769 773 776 779 783 786 790 794 797 801 804 806 809 811 814 816 819 822 824 827 829 832 834 836 838 841 843 845 846 848 849 850 852 853 855 857 858 859 860 861 862 863 865 866 867 868 869 870 871
720 722 723 726 729 731 733 736 740 744 748 752 756 760 764 767 770 773 778 782 786 790 793 797 800 803 806 808 811 814 816 819 821 824 827 829 831 833 836 838 840 842 844 845 847 848 850 851 853 855 856 857 858 859 860 861 863 864 865 866 867 868 869
715 717 717 720 722 725 727 731 735 739 743 747 750 754 757 760 764 768 773 778 782 787 790 794 797 800 803 806 808 811 813 816 819 821 824 826 828 831 833 835 838 840 842 843 845 846 848 849 851 852 854 855 857 857 859 860 861 862 863 864 865 866 867
710 709 711 713 714 717 721 724 729 733 738 741 743 747 751 755 760 765 770 774 778 783 786 790 794 797 800 803 805 808 810 813 816 818 821 823 825 828 830 832 835 837 839 840 842 844 846 847 849 850 851 853 854 855 857 858 859 860 861 862 863 864 865
705 704 707 709 710 714 716 719 724 728 732 736 739 744 748 752 757 762 766 770 774 778 781 786 790 793 797 799 802 805 807 810 813 815 818 821 823 825 827 829 832 834 836 838 840 841 843 845 846 848 849 850 852 853 854 856 857 858 859 860 861 862 863
701 702 704 705 706 709 711 714 717 721 725 729 734 739 744 749 754 757 762 766 771 774 778 782 785 789 792 795 799 802 804 807 809 812 815 818 820 822 824 826 828 830 833 835 837 838 840 842 844 845 846 848 849 851 852 853 855 856 857 858 859 860 861
695 697 698 699 700 702 704 707 710 715 720 725 730 736 741 746 750 754 759 762 766 770 773 777 781 784 787 791 795 798 800 803 806 809 812 815 817 819 821 823 825 827 830 831 833 835 837 839 841 842 844 845 847 848 849 850 852 854 855 856 857 857 859
689 691 692 693 694 696 698 701 705 710 715 721 728 732 735 740 745 749 753 757 761 765 768 772 776 779 783 787 791 793 796 800 803 806 809 812 814 816 818 820 822 824 826 828 830 832 834 836 838 840 841 842 844 845 847 848 849 851 852 853 854 855 856
683 685 686 686 688 691 693 696 700 705 711 716 721 724 728 734 738 742 746 751 756 759 762 767 771 775 778 782 786 789 793 796 799 802 805 808 811 812 815 817 819 821 823 825 827 829 831 833 835 836 838 839 841 842 844 845 847 849 850 851 852 853 854
679 681 682 682 685 687 689 693 697 703 708 711 715 719 724 728 732 736 741 746 750 753 757 762 767 771 774 777 782 786 789 793 795 798 801 804 807 809 811 814 816 818 820 822 825 826 828 830 831 833 834 836 838 839 841 843 844 846 847 848 850 851 852
677 678 679 681 683 684 687 691 695 699 703 707 712 716 720 724 727 731 735 739 744 748 753 758 763 766 769 774 779 782 785 788 792 795 797 800 803 805 808 811 813 814 816 819 822 823 824 826 828 829 831 832 834 836 838 839 841 843 844 846 847 848 849
679 679 680 681 681 682 685 687 690 694 698 703 707 711 715 719 722 726 730 734 739 744 749 753 758 762 765 770 775 778 781 784 787 790 793 796 799 801 804 807 809 811 813 815 818 820 821 823 824 825 827 829 831 832 834 836 838 839 841 843 844 845 847
678 678 680 681 681 683 684 686 688 690 694 697 701 705 709 713 717 722 726 729 735 740 744 749 753 757 761 766 770 774 777 780 782 785 789 792 795 798 801 803 805 807 809 812 814 816 818 819 820 822 823 825 827 829 831 832 834 836 838 840 841 842 844
676 675 676 678 681 683 685 686 687 688 691 693 697 701 705 709 713 717 721 725 731 736 740 744 748 752 756 761 766 769 771 775 779 782 785 788 791 794 797 800 802 804 806 808 810 812 814 815 817 818 820 822 823 825 827 829 831 832 834 836 838 839 840
676 674 674 675 677 678 680 682 683 685 687 689 693 697 701 705 710 714 718 723 727 732 736 740 744 748 752 757 761 763 767 771 775 778 781 784 787 790 793 796 798 800 802 804 806 808 810 812 814 815 817 818 820 822 824 825 827 828 830 832 834 835 837
674 672 672 672 672 673 673 675 676 679 683 686 690 693 696 701 705 709 713 718 723 727 731 735 739 743 748 752 755 759 763 767 771 774 777 780 783 786 789 792 795 797 799 801 802 805 807 809 811 812 813 815 816 818 820 821 822 823 825 828 830 832 834
672 669 668 667 667 667 668 669 671 675 679 682 685 688 691 695 699 703 708 713 718 722 727 731 735 739 744 747 751 755 759 763 767 770 773 776 779 782 785 789 791 793 795 797 799 801 803 805 807 808 810 811 813 814 816 816 817 819 821 824 826 829 831
672 668 664 661 661 662 663 664 667 671 674 676 680 684 687 691 696 701 705 709 713 718 723 727 731 735 740 744 748 752 755 759 763 766 770 773 776 779 782 785 788 789 791 793 795 797 799 801 803 804 806 808 809 810 811 812 813 815 817 820 822 825 828
672 668 663 658 656 657 658 659 660 663 666 669 673 678 681 686 691 695 699 704 709 715 719 723 727 732 737 741 745 748 752 756 760 763 766 769 772 775 778 781 783 785 787 789 791 794 795 797 799 800 802 804 805 806 808 808 809 811 813 816 818 821 823
671 665 660 655 652 652 652 653 654 656 660 663 667 672 677 683 688 692 698 703 707 712 717 720 725 729 734 738 741 744 749 753 756 759 762 765 768 772 774 777 779 781 784 786 788 790 792 793 795 797 798 800 802 803 804 805 806 807 809 811 814 816 819
666 661 656 651 649 647 647 649 651 654 657 661 666 672 678 683 688 693 697 701 705 710 714 718 722 726 730 734 738 742 746 749 752 756 758 761 765 768 770 773 775 778 780 783 784 786 787 789 791 793 794 796 798 799 800 801 802 804 805 807 810 812 815
661 657 652 647 644 643 643 644 647 650 654 659 665 670 674 680 685 690 694 698 703 707 712 716 720 723 727 731 734 738 741 745 748 751 754 758 761 764 766 769 771 774 776 779 781 782 784 786 787 789 790 792 794 795 796 797 798 800 801 803 806 809 811
657 652 648 642 639 640 641 643 646 650 655 659 663 667 671 677 682 687 691 696 700 705 709 714 717 720 723 726 730 733 737 740 744 747 750 754 756 759 762 764 767 770 772 775 777 779 780 782 783 785 786 788 789 791 792 792 794 796 797 800 803 805 807
653 647 644 640 637 637 640 643 646 651 655 659 663 666 670 675 680 684 689 693 697 702 706 710 713 717 720 722 726 729 732 736 739 743 746 749 752 755 758 761 763 766 768 771 773 775 776 778 780 781 782 784 785 786 787 788 790 791 793 796 799 801 803
652 646 642 639 637 637 639 642 646 650 655 659 663 666 670 674 678 682 686 690 695 699 703 706 709 712 716 719 723 726 729 733 736 739 743 745 749 752 754 757 759 762 764 767 769 771 773 774 776 777 778 780 781 782 783 784 786 787 789 791 794 797 799
654 648 643 641 639 638 639 642 646 649 652 656 661 665 669 673 677 681 684 688 693 696 699 702 705 708 713 717 721 724 727 730 733 736 739 742 745 748 750 753 755 758 761 763 765 767 769 770 772 773 774 776 777 778 779 780 782 783 784 787 789 791 794
655 650 646 644 642 641 642 643 645 647 650 654 659 664 668 672 675 679 683 687 690 692 694 697 701 706 711 715 718 722 725 728 730 733 736 739 741 744 747 749 752 755 757 759 762 763 764 766 768 769 770 772 772 774 774 776 777 779 780 782 784 786 789
657 653 650 647 646 645 645 644 645 647 650 654 658 662 666 669 673 677 681 684 686 688 692 696 700 704 708 712 716 719 722 725 728 730 733 736 738 741 744 746 749 751 753 755 758 759 761 762 764 765 767 768 769 770 770 771 773 774 776 778 779 781 784
660 657 654 652 651 649 648 647 648 649 651 654 658 661 664 668 671 675 679 681 683 687 691 694 698 703 707 710 713 716 719 722 724 727 730 733 735 738 740 742 745 747 749 751 754 756 757 759 761 762 763 765 765 766 767 767 768 770 771 773 775 776 778
663 661 659 657 656 653 652 651 651 652 654 656 658 661 663 666 669 673 676 679 682 686 689 693 697 701 705 707 710 713 715 718 721 724 727 729 731 734 736 738 741 743 745 747 750 752 754 755 757 759 760 761 762 763 763 763 764 765 766 768 770 772 773
667 665 663 662 660 658 657 655 655 656 657 659 660 662 664 666 668 671 675 678 681 685 688 692 695 699 701 704 707 710 712 715 718 720 723 725 727 729 731 734 737 739 741 743 746 748 750 751 753 755 756 757 758 759 759 759 760 761 762 763 766 767 769
670 668 667 666 665 663 662 660 660 661 661 663 664 665 667 669 670 672 675 678 681 684 686 690 693 696 699 701 704 707 710 712 715 717 719 721 723 725 727 730 732 734 737 739 741 743 745 747 748 750 752 753 754 755 755 755 756 757 758 760 761 763 764
675 673 672 671 670 668 667 665 666 666 667 668 668 669 670 672 674 676 677 679 681 683 686 688 691 694 696 699 701 704 707 709 711 713 716 718 719 721 723 725 728 730 732 734 736 739 741 743 744 745 747 748 749 750 751 751 752 753 755 756 757 758 760
679 677 676 675 674 673 671 671 671 672 672 673 673 673 674 675 677 679 680 681 682 684 686 688 690 692 694 696 699 701 703 705 708 710 712 714 716 718 719 721 724 725 727 729 731 733 736 737 738 740 742 743 744 745 746 747 748 748 750 751 752 754 756
683 681 680 679 678 677 676 676 676 676 677 677 678 677 678 679 680 682 682 683 684 685 687 688 690 691 693 695 696 698 700 702 705 707 709 711 713 714 716 717 719 721 722 725 726 728 730 732 733 735 737 738 739 740 741 742 743 743 745 746 748 750 752
687 686 685 684 683 682 681 681 681 680 681 681 681 681 681 682 683 684 685 685 685 686 688 688 689 691 692 693 695 696 697 699 702 704 706 708 709 711 713 714 716 717 719 721 723 725 727 729 730 732 733 735 736 736 737 739 740 740 742 744 745 747 749
691 690 689 688 687 687 686 685 685 684 684 684 685 685 685 684 684 685 686 686 687 687 688 688 689 690 691 693 694 695 696 698 700 701 703 704 706 708 711 713 714 715 717 719 721 722 725 727 728 730 731 732 733 734 735 736 737 739 740 742 743 745 747
694 694 693 693 692 692 691 690 689 688 687 688 688 687 687 687 687 687 687 688 688 688 688 688 689 690 691 692 693 694 696 697 698 700 702 703 705 707 709 711 712 714 716 717 719 721 723 725 726 728 729 730 732 732 733 735 736 737 739 740 742 743 745